Location: ???? ??????? ????
(31.2176°N, 31.6797°E)
Time: 18:17:05
(UTC+00:00)

Cosmos 1980 Rocket - Pass Details

Date: 29 October 2020
Orbit: 831 x 848 km, 71.0° (Epoch: 29 November)

Event Time Altitude Azimuth Distance (km) Brightness Sun altitude
Rises 17:27:39 0° 228° (SW) 3,380 5.9 -30.6°
Reaches altitude 10° 17:30:27 10° 240° (WSW) 2,445 5.2 -31.2°
Maximum altitude 17:35:08 27° 297° (WNW) 1,560 4.0 -32.2°
Enters shadow 17:39:29 11° 352° (N) 2,343 4.6 -33.1°
